Location: Hodgeman County Ambulance
(38.0844°N, 99.8949°W)
Time: 20:41:59
(UTC+00:00)

N. Korean satellite - Pass Details

Date: 07 October 2021
Orbit: 450 x 494 km, 97.3° (Epoch: 28 October)

Event Time Altitude Azimuth Distance (km) Brightness Sun altitude
Rises 12:00:45 0° 9° (N) 2,572 10.4 -8.7°
Reaches altitude 10° 12:02:50 10° 7° (N) 1,691 9.4 -8.3°
Maximum altitude 12:06:28 73° 284° (WNW) 521 6.5 -7.6°
Drops below altitude 10° 12:10:05 10° 199° (SSW) 1,688 9.1 -6.9°
Sets 12:12:09 0° 197° (SSW) 2,567 10.1 -6.5°
